AE7MK-13 Weather Reports


time (UTC)temp
F
wind
direction
speed
knots
gust
knots
rain 1hr
in
rain 24hr
in
rain mn
in
humidity
%
barometer
mb
20260510052003 53 0 0.0 0.0 0.00 0.00 0.00 48 1019.3
20260510051003 53 316 0.0 0.9 0.00 0.00 0.00 49 1019.3
20260510050004 52 316 0.0 0.9 0.00 0.00 0.00 50 1019.3
20260510045003 53 0 0.0 0.0 0.00 0.00 0.00 49 1019.5
20260510044214 53 0 0.0 0.0 0.00 0.00 0.00 50 1019.5
20260510043003 53 0 0.0 0.0 0.00 0.00 0.00 50 1019.6
20260510042005 54 0 0.0 0.0 0.00 0.00 0.00 48 1019.5
20260510041003 54 0 0.0 0.0 0.00 0.00 0.00 48 1019.4
20260510040003 56 0 0.0 0.0 0.00 0.00 0.00 46 1019.3
20260510035003 56 0 0.0 0.0 0.00 0.00 0.00 45 1019.2
20260510034003 56 0 0.0 0.0 0.00 0.00 0.00 46 1019.2
20260510033004 56 0 0.0 0.0 0.00 0.00 0.00 46 1019.2
20260510032214 57 0 0.0 0.0 0.00 0.00 0.00 45 1019.1
20260510031003 57 0 0.0 0.0 0.00 0.00 0.00 44 1019.0
20260510030003 58 100 0.0 2.6 0.00 0.00 0.00 44 1019.0
20260510025003 58 0 0.0 0.0 0.00 0.00 0.00 43 1019.1
20260510024003 59 126 0.9 5.2 0.00 0.00 0.00 43 1019.0
20260510023003 59 131 0.9 3.5 0.00 0.00 0.00 42 1019.2
20260510022003 60 110 1.7 5.2 0.00 0.00 0.00 42 1019.1
20260510021003 60 107 3.5 7.0 0.00 0.00 0.00 42 1019.1
20260510020003 60 110 3.5 7.0 0.00 0.00 0.00 42 1019.0
20260510015003 60 108 3.5 6.1 0.00 0.00 0.00 41 1019.2
20260510014003 61 130 3.5 6.1 0.00 0.00 0.00 41 1019.5
20260510013003 61 140 3.5 6.1 0.00 0.00 0.00 39 1019.7
20260510012003 61 143 4.3 7.0 0.00 0.00 0.00 38 1019.7
20260510011213 61 146 4.3 8.7 0.00 0.00 0.00 38 1019.7
20260510010003 62 149 4.3 7.8 0.00 0.00 0.00 37 1019.8
20260510005003 62 114 2.6 6.1 0.00 0.00 0.00 37 1019.6
20260510004003 62 143 3.5 7.8 0.00 0.00 0.00 37 1019.7
20260510003004 62 132 3.5 7.8 0.00 0.00 0.00 37 1019.6
20260510002214 63 136 3.5 7.8 0.00 0.00 0.00 36 1019.8
20260510001215 63 157 3.5 7.8 0.00 0.00 0.00 36 1019.8
20260510000212 64 167 1.7 4.3 0.00 0.00 0.00 34 1019.7
20260509235003 64 158 2.6 7.8 0.00 0.00 0.00 35 1019.8
20260509234003 63 127 2.6 6.1 0.00 0.00 0.00 33 1019.8
20260509233003 64 148 2.6 7.0 0.00 0.00 0.00 33 1020.0
20260509232003 64 157 2.6 7.8 0.00 0.00 0.00 32 1020.0
20260509231003 64 151 2.6 6.1 0.00 0.00 0.00 32 1020.2
20260509230005 64 135 1.7 7.8 0.00 0.00 0.00 32 1020.4
20260509225003 63 133 4.3 9.6 0.00 0.00 0.00 30 1020.4
20260509224214 64 146 3.5 9.6 0.00 0.00 0.00 31 1020.4
20260509223003 63 123 3.5 7.0 0.00 0.00 0.00 31 1020.6
20260509222003 64 152 1.7 6.1 0.00 0.00 0.00 30 1020.6
20260509221214 63 111 1.7 7.8 0.00 0.00 0.00 30 1020.7
20260509220214 63 152 2.6 7.8 0.00 0.00 0.00 29 1020.8
20260509215003 63 148 2.6 7.0 0.00 0.00 0.00 28 1020.8
20260509214003 63 171 3.5 8.7 0.00 0.00 0.00 29 1020.9
20260509213003 62 116 3.5 7.8 0.00 0.00 0.00 29 1020.9
20260509212003 63 112 3.5 8.7 0.00 0.00 0.00 30 1021.0
20260509211003 63 156 1.7 9.6 0.00 0.00 0.00 29 1021.1
20260509210003 62 161 2.6 7.0 0.00 0.00 0.00 29 1021.3
20260509205213 62 115 3.5 8.7 0.00 0.00 0.00 30 1021.2
20260509204003 62 151 1.7 7.8 0.00 0.00 0.00 32 1021.3
20260509203003 62 127 4.3 8.7 0.00 0.00 0.00 30 1021.2
20260509202003 61 115 4.3 10.4 0.00 0.00 0.00 33 1021.2
20260509201003 61 172 3.5 8.7 0.00 0.00 0.00 32 1021.3
20260509200003 61 162 4.3 11.3 0.00 0.00 0.00 30 1021.3
20260509195003 60 126 4.3 10.4 0.00 0.00 0.00 33 1021.3
20260509194003 60 125 5.2 9.6 0.00 0.00 0.00 35 1021.3
20260509193004 59 134 5.2 8.7 0.00 0.00 0.00 34 1021.4
20260509192003 60 104 4.3 10.4 0.00 0.00 0.00 34 1021.4
20260509191213 59 117 5.2 11.3 0.00 0.00 0.00 34 1021.5
20260509190003 60 148 3.5 8.7 0.00 0.00 0.00 34 1021.5
20260509185003 58 149 4.3 10.4 0.00 0.00 0.00 33 1021.5
20260509184003 58 112 4.3 10.4 0.00 0.00 0.00 37 1021.5
20260509183003 57 119 5.2 11.3 0.00 0.00 0.00 35 1021.5
20260509182212 57 118 5.2 10.4 0.00 0.00 0.00 39 1021.4
20260509181003 57 116 5.2 9.6 0.00 0.00 0.00 40 1021.6
20260509180003 56 137 5.2 11.3 0.00 0.00 0.00 39 1021.7
20260509175003 56 115 6.1 10.4 0.00 0.00 0.00 39 1021.6
20260509174003 56 111 6.1 10.4 0.00 0.00 0.00 41 1021.6
20260509173214 56 117 5.2 10.4 0.00 0.00 0.00 41 1021.7
20260509172003 56 146 6.1 10.4 0.00 0.00 0.00 38 1021.5
20260509171003 56 110 4.3 8.7 0.00 0.00 0.00 38 1021.4
20260509170003 56 122 5.2 8.7 0.00 0.00 0.00 39 1021.3
20260509165003 56 112 4.3 7.8 0.00 0.00 0.00 40 1021.2
20260509164003 55 111 4.3 9.6 0.00 0.00 0.00 41 1021.2
20260509163003 55 103 4.3 8.7 0.00 0.00 0.00 45 1021.1
20260509162003 55 110 3.5 7.0 0.00 0.00 0.00 41 1021.2
20260509161003 56 111 3.5 6.1 0.00 0.00 0.00 43 1021.2
20260509160003 56 116 3.5 7.0 0.00 0.00 0.00 41 1021.3
20260509155003 56 109 3.5 5.2 0.00 0.00 0.00 37 1021.2
20260509154003 56 109 3.5 5.2 0.00 0.00 0.00 34 1021.3
20260509153213 57 107 0.9 5.2 0.00 0.00 0.00 32 1021.1
20260509152003 57 0 0.0 0.0 0.00 0.00 0.00 32 1021.0
20260509151003 56 0 0.0 0.0 0.00 0.00 0.00 32 1021.1
20260509150003 56 0 0.0 0.0 0.00 0.00 0.00 35 1021.0
20260509145003 55 0 0.0 0.0 0.00 0.00 0.00 37 1020.9
20260509144003 55 0 0.0 0.0 0.00 0.00 0.00 41 1020.9
20260509143213 54 0 0.0 0.0 0.00 0.00 0.00 38 1020.9
20260509142003 53 316 0.9 3.5 0.00 0.00 0.00 42 1020.8
20260509141213 52 309 2.6 5.2 0.00 0.00 0.00 43 1020.6
20260509140004 51 306 2.6 7.0 0.00 0.00 0.00 45 1020.6
20260509135003 49 325 1.7 6.1 0.00 0.00 0.00 48 1020.5
20260509134003 48 314 1.7 7.0 0.00 0.00 0.00 51 1020.3
20260509133212 48 305 3.5 8.7 0.00 0.00 0.00 51 1020.2
20260509132003 47 304 7.0 10.4 0.00 0.00 0.00 52 1020.1
20260509131214 46 303 7.8 10.4 0.00 0.00 0.00 54 1019.9
20260509130003 46 307 8.7 13.0 0.00 0.00 0.00 55 1019.8
20260509125003 45 309 7.8 10.4 0.00 0.00 0.00 56 1019.7
20260509124003 45 307 8.7 12.2 0.00 0.00 0.00 57 1019.7
20260509123003 45 306 9.6 13.0 0.00 0.00 0.00 58 1019.7
20260509122003 45 300 10.4 13.0 0.00 0.00 0.00 58 1019.7
20260509121003 45 303 10.4 13.9 0.00 0.00 0.00 57 1019.8
20260509120003 44 300 8.7 12.2 0.00 0.00 0.00 59 1019.8
20260509115003 44 303 7.8 11.3 0.00 0.00 0.00 61 1019.8
20260509114003 44 308 6.1 9.6 0.00 0.00 0.00 64 1020.0
20260509113003 44 308 6.1 9.6 0.00 0.00 0.00 64 1020.0
20260509112003 43 328 0.9 5.2 0.00 0.00 0.00 66 1020.1
20260509111003 43 317 0.9 5.2 0.00 0.00 0.00 65 1020.1
20260509110003 43 331 0.9 4.3 0.00 0.00 0.00 66 1020.1
20260509105003 44 347 1.7 6.1 0.00 0.00 0.00 65 1019.9
20260509104003 44 329 1.7 5.2 0.00 0.00 0.00 65 1019.9
20260509103003 44 327 1.7 7.0 0.00 0.00 0.00 64 1019.8
20260509102003 44 322 1.7 7.0 0.00 0.00 0.00 64 1019.8
20260509101003 44 318 3.5 9.6 0.00 0.00 0.00 63 1019.8
20260509100004 44 316 4.3 10.4 0.00 0.00 0.00 61 1019.6
20260509095003 45 319 4.3 12.2 0.00 0.00 0.00 61 1019.5
20260509094003 45 313 8.7 14.8 0.00 0.00 0.00 61 1019.4
20260509093003 45 312 10.4 17.4 0.00 0.00 0.00 60 1019.3
20260509092004 45 315 9.6 15.6 0.00 0.00 0.00 61 1019.3
20260509091003 46 309 12.2 17.4 0.00 0.00 0.00 59 1019.3
20260509090003 46 305 12.2 16.5 0.00 0.00 0.00 58 1019.3
20260509085003 46 307 11.3 15.6 0.00 0.00 0.00 58 1019.5
20260509084003 46 307 10.4 15.6 0.00 0.00 0.00 57 1019.5
20260509083003 47 307 11.3 16.5 0.00 0.00 0.00 54 1019.5
20260509082003 47 307 10.4 15.6 0.00 0.00 0.00 54 1019.5
20260509081004 47 301 11.3 16.5 0.00 0.00 0.00 52 1019.5
20260509080003 47 302 9.6 15.6 0.00 0.00 0.00 52 1019.6
20260509075004 47 303 8.7 15.6 0.00 0.00 0.00 53 1019.6
20260509074003 47 304 9.6 14.8 0.00 0.00 0.00 52 1019.6
20260509073003 46 303 9.6 13.0 0.00 0.00 0.00 52 1019.5
20260509072003 47 306 7.8 11.3 0.00 0.00 0.00 51 1019.5
20260509071003 47 304 6.1 9.6 0.00 0.00 0.00 51 1019.3
20260509070004 47 299 7.0 11.3 0.00 0.00 0.00 50 1019.2
20260509065003 47 292 8.7 12.2 0.00 0.00 0.00 49 1019.1
20260509064214 47 291 7.0 16.5 0.00 0.00 0.00 50 1019.1
20260509063003 46 288 5.2 10.4 0.00 0.00 0.00 53 1019.3
20260509062003 46 291 5.2 11.3 0.00 0.00 0.00 53 1019.2
20260509061214 46 290 5.2 8.7 0.00 0.00 0.00 52 1019.2
20260509060004 47 285 8.7 14.8 0.00 0.00 0.00 50 1018.9
20260509055214 47 282 9.6 14.8 0.00 0.00 0.00 50 1018.9
20260509054003 48 295 9.6 13.9 0.00 0.00 0.00 48 1019.0
20260509053213 48 300 10.4 15.6 0.00 0.00 0.00 47 1018.9